International Skating Union - Official Site

Essent ISU World Cup Salt Lake City
February 18-19, 2011

Draw | Lap Times | Index | World Cup

Referee: Ernest  KRETSCHMANN  (USA)
Starter: Garth  LINDER  (USA)
StartTime: EndTime: Air Temp: Ice Temp: Humidity:
09:05 10:56 18℃ -11.3℃ 23.1%
Result 10000m Men Division B
Rankings as of Feb 19 2011 12:11PM
Rank: No.: Name: Nation: Time: Behind: Points:
1 140 Arjen  van der KIEFT NED NED 12:56.90400m - 35.12 - (35.1)
800m - 1:05.34 - (30.2)
1200m - 1:36.39 - (31.0)
1600m - 2:07.38 - (30.9)
2000m - 2:38.05 - (30.6)
2400m - 3:08.65 - (30.5)
2800m - 3:39.57 - (30.9)
3200m - 4:10.16 - (30.5)
3600m - 4:40.92 - (30.7)
4000m - 5:11.57 - (30.6)
4400m - 5:41.95 - (30.3)
4800m - 6:12.68 - (30.7)
5200m - 6:43.81 - (31.1)
5600m - 7:14.64 - (30.8)
6000m - 7:45.71 - (31.0)
6400m - 8:16.99 - (31.2)
6800m - 8:48.50 - (31.5)
7200m - 9:19.98 - (31.4)
7600m - 9:51.36 - (31.3)
8000m - 10:22.44 - (31.0)
8400m - 10:53.27 - (30.8)
8800m - 11:24.31 - (31.0)
9200m - 11:55.14 - (30.8)
9600m - 12:26.01 - (30.8)
10000m - 12:56.90 - (30.8)
35
2 147 Shane  DOBBIN NZL NZL 13:04.36400m - 34.88 - (34.8)
800m - 1:05.80 - (30.9)
1200m - 1:37.14 - (31.3)
1600m - 2:08.50 - (31.3)
2000m - 2:39.77 - (31.2)
2400m - 3:11.05 - (31.2)
2800m - 3:42.30 - (31.2)
3200m - 4:13.56 - (31.2)
3600m - 4:44.82 - (31.2)
4000m - 5:16.28 - (31.4)
4400m - 5:47.80 - (31.5)
4800m - 6:18.92 - (31.1)
5200m - 6:49.93 - (31.0)
5600m - 7:21.10 - (31.1)
6000m - 7:52.29 - (31.1)
6400m - 8:23.47 - (31.1)
6800m - 8:54.55 - (31.0)
7200m - 9:25.68 - (31.1)
7600m - 9:56.75 - (31.0)
8000m - 10:27.90 - (31.1)
8400m - 10:59.07 - (31.1)
8800m - 11:30.42 - (31.3)
9200m - 12:01.75 - (31.3)
9600m - 12:33.08 - (31.3)
10000m - 13:04.36 - (31.2)
7.46 30
3 117 Marco  WEBER GER GER 13:09.36400m - 35.55 - (35.5)
800m - 1:06.78 - (31.2)
1200m - 1:37.93 - (31.1)
1600m - 2:08.97 - (31.0)
2000m - 2:40.12 - (31.1)
2400m - 3:11.27 - (31.1)
2800m - 3:42.64 - (31.3)
3200m - 4:14.04 - (31.4)
3600m - 4:45.53 - (31.4)
4000m - 5:16.93 - (31.4)
4400m - 5:48.32 - (31.3)
4800m - 6:19.62 - (31.3)
5200m - 6:51.16 - (31.5)
5600m - 7:22.49 - (31.3)
6000m - 7:53.76 - (31.2)
6400m - 8:25.18 - (31.4)
6800m - 8:56.62 - (31.4)
7200m - 9:27.91 - (31.2)
7600m - 9:59.73 - (31.8)
8000m - 10:31.24 - (31.5)
8400m - 11:02.72 - (31.4)
8800m - 11:34.42 - (31.6)
9200m - 12:06.37 - (31.9)
9600m - 12:38.07 - (31.7)
10000m - 13:09.36 - (31.2)
12.46 25
4 142 Henrik  CHRISTIANSEN NOR NOR 13:15.42400m - 35.81 - (35.8)
800m - 1:06.93 - (31.1)
1200m - 1:39.31 - (32.3)
1600m - 2:11.73 - (32.4)
2000m - 2:43.48 - (31.7)
2400m - 3:15.14 - (31.6)
2800m - 3:47.14 - (32.0)
3200m - 4:19.08 - (31.9)
3600m - 4:51.03 - (31.9)
4000m - 5:22.84 - (31.8)
4400m - 5:54.65 - (31.8)
4800m - 6:26.60 - (31.9)
5200m - 6:58.47 - (31.8)
5600m - 7:30.21 - (31.7)
6000m - 8:01.76 - (31.5)
6400m - 8:33.40 - (31.6)
6800m - 9:04.84 - (31.4)
7200m - 9:36.42 - (31.5)
7600m - 10:08.09 - (31.6)
8000m - 10:39.73 - (31.6)
8400m - 11:11.16 - (31.4)
8800m - 11:42.30 - (31.1)
9200m - 12:13.62 - (31.3)
9600m - 12:44.77 - (31.1)
10000m - 13:15.42 - (30.6)
18.52 21
5 115 Moritz  GEISREITER GER GER 13:16.12400m - 36.32 - (36.3)
800m - 1:08.38 - (32.0)
1200m - 1:40.64 - (32.2)
1600m - 2:12.77 - (32.1)
2000m - 2:44.50 - (31.7)
2400m - 3:16.63 - (32.1)
2800m - 3:48.54 - (31.9)
3200m - 4:20.39 - (31.8)
3600m - 4:52.15 - (31.7)
4000m - 5:23.90 - (31.7)
4400m - 5:55.57 - (31.6)
4800m - 6:27.52 - (31.9)
5200m - 6:59.32 - (31.8)
5600m - 7:31.01 - (31.6)
6000m - 8:02.81 - (31.8)
6400m - 8:34.59 - (31.7)
6800m - 9:06.05 - (31.4)
7200m - 9:37.47 - (31.4)
7600m - 10:09.02 - (31.5)
8000m - 10:40.83 - (31.8)
8400m - 11:12.28 - (31.4)
8800m - 11:43.80 - (31.5)
9200m - 12:14.95 - (31.1)
9600m - 12:46.06 - (31.1)
10000m - 13:16.12 - (30.0)
19.22 18
6 112 Alexej  BAUMGÄRTNER GER GER 13:20.96400m - 35.59 - (35.5)
800m - 1:06.63 - (31.0)
1200m - 1:38.24 - (31.6)
1600m - 2:09.59 - (31.3)
2000m - 2:41.13 - (31.5)
2400m - 3:12.73 - (31.5)
2800m - 3:44.54 - (31.8)
3200m - 4:16.16 - (31.6)
3600m - 4:48.04 - (31.8)
4000m - 5:19.76 - (31.7)
4400m - 5:51.58 - (31.8)
4800m - 6:23.26 - (31.6)
5200m - 6:55.11 - (31.8)
5600m - 7:27.05 - (31.9)
6000m - 7:59.05 - (32.0)
6400m - 8:30.85 - (31.8)
6800m - 9:02.90 - (32.0)
7200m - 9:34.94 - (32.0)
7600m - 10:07.22 - (32.2)
8000m - 10:39.41 - (32.1)
8400m - 11:11.77 - (32.3)
8800m - 11:44.20 - (32.4)
9200m - 12:16.66 - (32.4)
9600m - 12:49.07 - (32.4)
10000m - 13:20.96 - (31.8)
24.06 15
7 156 Aleksandr  RUMYANTSEV RUS RUS 13:21.46400m - 35.17 - (35.1)
800m - 1:06.57 - (31.3)
1200m - 1:37.95 - (31.3)
1600m - 2:09.43 - (31.4)
2000m - 2:40.77 - (31.3)
2400m - 3:12.24 - (31.4)
2800m - 3:43.74 - (31.5)
3200m - 4:15.53 - (31.7)
3600m - 4:47.08 - (31.5)
4000m - 5:18.62 - (31.5)
4400m - 5:50.18 - (31.5)
4800m - 6:21.81 - (31.6)
5200m - 6:53.42 - (31.6)
5600m - 7:25.18 - (31.7)
6000m - 7:57.12 - (31.9)
6400m - 8:29.21 - (32.0)
6800m - 9:01.14 - (31.9)
7200m - 9:33.51 - (32.3)
7600m - 10:05.78 - (32.2)
8000m - 10:37.85 - (32.0)
8400m - 11:10.21 - (32.3)
8800m - 11:42.62 - (32.4)
9200m - 12:15.21 - (32.5)
9600m - 12:48.20 - (32.9)
10000m - 13:21.46 - (33.2)
24.56 13
8 103 Bart  SWINGS BEL BEL 13:23.99400m - 34.46 - (34.4)
800m - 1:05.50 - (31.0)
1200m - 1:37.34 - (31.8)
1600m - 2:09.25 - (31.9)
2000m - 2:40.95 - (31.6)
2400m - 3:12.56 - (31.6)
2800m - 3:44.46 - (31.9)
3200m - 4:16.38 - (31.9)
3600m - 4:48.45 - (32.0)
4000m - 5:20.51 - (32.0)
4400m - 5:52.64 - (32.1)
4800m - 6:24.46 - (31.8)
5200m - 6:56.50 - (32.0)
5600m - 7:28.45 - (31.9)
6000m - 8:00.77 - (32.3)
6400m - 8:33.06 - (32.2)
6800m - 9:05.40 - (32.3)
7200m - 9:37.62 - (32.2)
7600m - 10:09.98 - (32.3)
8000m - 10:42.56 - (32.5)
8400m - 11:15.42 - (32.8)
8800m - 11:48.50 - (33.0)
9200m - 12:20.25 - (31.7)
9600m - 12:51.73 - (31.4)
10000m - 13:23.99 - (32.2)
27.09 11
9 121 Hiroki  HIRAKO JPN JPN 13:25.26400m - 35.28 - (35.2)
800m - 1:06.59 - (31.3)
1200m - 1:38.73 - (32.1)
1600m - 2:11.23 - (32.4)
2000m - 2:43.90 - (32.6)
2400m - 3:16.26 - (32.3)
2800m - 3:48.49 - (32.2)
3200m - 4:20.75 - (32.2)
3600m - 4:53.04 - (32.2)
4000m - 5:25.32 - (32.2)
4400m - 5:57.36 - (32.0)
4800m - 6:29.69 - (32.3)
5200m - 7:01.81 - (32.1)
5600m - 7:34.04 - (32.2)
6000m - 8:06.18 - (32.1)
6400m - 8:38.48 - (32.3)
6800m - 9:10.72 - (32.2)
7200m - 9:42.73 - (32.0)
7600m - 10:14.65 - (31.9)
8000m - 10:46.79 - (32.1)
8400m - 11:18.71 - (31.9)
8800m - 11:50.50 - (31.7)
9200m - 12:22.13 - (31.6)
9600m - 12:53.69 - (31.5)
10000m - 13:25.26 - (31.5)
28.36 10
10 149 Slawomir  CHMURA POL POL 13:27.25400m - 37.16 - (37.1)
800m - 1:09.11 - (31.9)
1200m - 1:41.71 - (32.5)
1600m - 2:13.42 - (31.7)
2000m - 2:45.62 - (32.2)
2400m - 3:17.89 - (32.2)
2800m - 3:50.50 - (32.6)
3200m - 4:22.37 - (31.8)
3600m - 4:54.39 - (32.0)
4000m - 5:26.25 - (31.8)
4400m - 5:58.08 - (31.8)
4800m - 6:29.60 - (31.5)
5200m - 7:01.56 - (31.9)
5600m - 7:33.25 - (31.6)
6000m - 8:05.02 - (31.7)
6400m - 8:36.73 - (31.7)
6800m - 9:08.73 - (32.0)
7200m - 9:40.62 - (31.8)
7600m - 10:12.72 - (32.1)
8000m - 10:44.87 - (32.1)
8400m - 11:17.24 - (32.3)
8800m - 11:49.34 - (32.1)
9200m - 12:21.74 - (32.3)
9600m - 12:54.45 - (32.7)
10000m - 13:27.25 - (32.7)
30.35 9
11 164 Patrick  MEEK USA USA 13:30.36400m - 36.98 - (36.9)
800m - 1:10.13 - (33.1)
1200m - 1:43.05 - (32.9)
1600m - 2:15.31 - (32.2)
2000m - 2:47.29 - (31.9)
2400m - 3:19.42 - (32.1)
2800m - 3:52.24 - (32.8)
3200m - 4:24.48 - (32.2)
3600m - 4:56.50 - (32.0)
4000m - 5:28.34 - (31.8)
4400m - 6:00.33 - (31.9)
4800m - 6:32.36 - (32.0)
5200m - 7:04.12 - (31.7)
5600m - 7:35.77 - (31.6)
6000m - 8:07.57 - (31.8)
6400m - 8:39.25 - (31.6)
6800m - 9:11.05 - (31.7)
7200m - 9:42.98 - (31.9)
7600m - 10:15.03 - (32.0)
8000m - 10:46.87 - (31.8)
8400m - 11:18.65 - (31.7)
8800m - 11:50.99 - (32.3)
9200m - 12:23.63 - (32.6)
9600m - 12:56.69 - (33.0)
10000m - 13:30.36 - (33.6)
33.46 8
12 158 Roger  SCHNEIDER SUI SUI 13:30.78400m - 35.75 - (35.7)
800m - 1:06.24 - (30.4)
1200m - 1:37.38 - (31.1)
1600m - 2:08.52 - (31.1)
2000m - 2:39.71 - (31.1)
2400m - 3:11.49 - (31.7)
2800m - 3:43.13 - (31.6)
3200m - 4:14.91 - (31.7)
3600m - 4:46.72 - (31.8)
4000m - 5:18.70 - (31.9)
4400m - 5:51.11 - (32.4)
4800m - 6:23.43 - (32.3)
5200m - 6:55.79 - (32.3)
5600m - 7:28.72 - (32.9)
6000m - 8:01.95 - (33.2)
6400m - 8:35.06 - (33.1)
6800m - 9:07.72 - (32.6)
7200m - 9:40.70 - (32.9)
7600m - 10:13.81 - (33.1)
8000m - 10:46.81 - (33.0)
8400m - 11:19.78 - (32.9)
8800m - 11:52.54 - (32.7)
9200m - 12:25.69 - (33.1)
9600m - 12:58.43 - (32.7)
10000m - 13:30.78 - (32.3)
33.88 7
13 153 Pavel  BAYNOV RUS RUS 13:40.61400m - 36.30 - (36.2)
800m - 1:08.59 - (32.2)
1200m - 1:41.04 - (32.4)
1600m - 2:13.80 - (32.7)
2000m - 2:46.21 - (32.4)
2400m - 3:18.60 - (32.3)
2800m - 3:51.09 - (32.4)
3200m - 4:23.79 - (32.7)
3600m - 4:56.69 - (32.8)
4000m - 5:29.34 - (32.6)
4400m - 6:02.19 - (32.8)
4800m - 6:35.39 - (33.1)
5200m - 7:08.66 - (33.2)
5600m - 7:42.15 - (33.4)
6000m - 8:15.70 - (33.5)
6400m - 8:49.50 - (33.8)
6800m - 9:22.97 - (33.4)
7200m - 9:55.97 - (33.0)
7600m - 10:28.48 - (32.5)
8000m - 11:00.36 - (31.8)
8400m - 11:32.21 - (31.8)
8800m - 12:04.12 - (31.9)
9200m - 12:36.01 - (31.8)
9600m - 13:08.32 - (32.3)
10000m - 13:40.61 - (32.2)
43.71 6
14 146 Fredrik  VAN DER HORST NOR NOR 13:41.26400m - 35.58 - (35.5)
800m - 1:07.62 - (32.0)
1200m - 1:40.31 - (32.6)
1600m - 2:12.86 - (32.5)
2000m - 2:45.61 - (32.7)
2400m - 3:18.35 - (32.7)
2800m - 3:50.87 - (32.5)
3200m - 4:23.37 - (32.5)
3600m - 4:56.05 - (32.6)
4000m - 5:28.88 - (32.8)
4400m - 6:01.34 - (32.4)
4800m - 6:33.09 - (31.7)
5200m - 7:05.85 - (32.7)
5600m - 7:38.33 - (32.4)
6000m - 8:10.55 - (32.2)
6400m - 8:42.56 - (32.0)
6800m - 9:14.71 - (32.1)
7200m - 9:47.14 - (32.4)
7600m - 10:20.19 - (33.0)
8000m - 10:53.52 - (33.3)
8400m - 11:27.06 - (33.5)
8800m - 12:00.86 - (33.8)
9200m - 12:34.52 - (33.6)
9600m - 13:07.42 - (32.8)
10000m - 13:41.26 - (33.8)
44.36 5
15 122 Shota  NAKAMURA JPN JPN 13:41.83400m - 36.02 - (36.0)
800m - 1:08.23 - (32.2)
1200m - 1:40.90 - (32.6)
1600m - 2:13.52 - (32.6)
2000m - 2:46.53 - (33.0)
2400m - 3:18.91 - (32.3)
2800m - 3:51.74 - (32.8)
3200m - 4:24.50 - (32.7)
3600m - 4:56.84 - (32.3)
4000m - 5:29.44 - (32.6)
4400m - 6:02.09 - (32.6)
4800m - 6:34.94 - (32.8)
5200m - 7:08.03 - (33.0)
5600m - 7:40.85 - (32.8)
6000m - 8:14.37 - (33.5)
6400m - 8:47.34 - (32.9)
6800m - 9:20.38 - (33.0)
7200m - 9:53.56 - (33.1)
7600m - 10:26.57 - (33.0)
8000m - 10:59.53 - (32.9)
8400m - 11:32.52 - (32.9)
8800m - 12:05.38 - (32.8)
9200m - 12:38.13 - (32.7)
9600m - 13:10.31 - (32.1)
10000m - 13:41.83 - (31.5)
44.93 4
16 120 Luca  STEFANI ITA ITA 13:43.63400m - 36.19 - (36.1)
800m - 1:08.29 - (32.1)
1200m - 1:40.98 - (32.6)
1600m - 2:13.27 - (32.2)
2000m - 2:45.99 - (32.7)
2400m - 3:18.34 - (32.3)
2800m - 3:50.74 - (32.4)
3200m - 4:22.90 - (32.1)
3600m - 4:55.28 - (32.3)
4000m - 5:27.59 - (32.3)
4400m - 5:59.61 - (32.0)
4800m - 6:31.71 - (32.0)
5200m - 7:03.99 - (32.2)
5600m - 7:36.61 - (32.6)
6000m - 8:09.44 - (32.8)
6400m - 8:42.39 - (32.9)
6800m - 9:15.80 - (33.4)
7200m - 9:49.33 - (33.5)
7600m - 10:22.80 - (33.4)
8000m - 10:56.49 - (33.6)
8400m - 11:30.79 - (34.2)
8800m - 12:04.48 - (33.6)
9200m - 12:38.58 - (34.1)
9600m - 13:11.40 - (32.8)
10000m - 13:43.63 - (32.2)
46.73 3
17 160 Ryan  BEDFORD USA USA 13:49.82400m - 35.40 - (35.3)
800m - 1:07.27 - (31.8)
1200m - 1:39.39 - (32.1)
1600m - 2:12.41 - (33.0)
2000m - 2:44.81 - (32.4)
2400m - 3:17.17 - (32.3)
2800m - 3:49.54 - (32.3)
3200m - 4:21.88 - (32.3)
3600m - 4:54.13 - (32.2)
4000m - 5:26.48 - (32.3)
4400m - 5:58.65 - (32.1)
4800m - 6:31.11 - (32.4)
5200m - 7:03.86 - (32.7)
5600m - 7:37.06 - (33.1)
6000m - 8:10.83 - (33.7)
6400m - 8:45.01 - (34.1)
6800m - 9:19.56 - (34.5)
7200m - 9:54.10 - (34.5)
7600m - 10:28.74 - (34.6)
8000m - 11:03.50 - (34.7)
8400m - 11:37.99 - (34.4)
8800m - 12:11.97 - (33.9)
9200m - 12:45.48 - (33.5)
9600m - 13:18.35 - (32.8)
10000m - 13:49.82 - (31.4)
52.92 2
18 125 Artyom  BELOUSOV KAZ KAZ 13:52.37400m - 36.48 - (36.4)
800m - 1:08.66 - (32.1)
1200m - 1:40.90 - (32.2)
1600m - 2:13.61 - (32.7)
2000m - 2:46.12 - (32.5)
2400m - 3:18.57 - (32.4)
2800m - 3:50.97 - (32.4)
3200m - 4:23.34 - (32.3)
3600m - 4:55.82 - (32.4)
4000m - 5:28.62 - (32.8)
4400m - 6:01.39 - (32.7)
4800m - 6:34.45 - (33.0)
5200m - 7:07.51 - (33.0)
5600m - 7:40.59 - (33.0)
6000m - 8:13.61 - (33.0)
6400m - 8:46.88 - (33.2)
6800m - 9:20.47 - (33.5)
7200m - 9:54.15 - (33.6)
7600m - 10:28.30 - (34.1)
8000m - 11:02.36 - (34.0)
8400m - 11:36.09 - (33.7)
8800m - 12:10.09 - (34.0)
9200m - 12:44.16 - (34.0)
9600m - 13:18.14 - (33.9)
10000m - 13:52.37 - (34.2)
55.47 1
19 108 Justin  WARSYLEWICZ CAN CAN 13:55.03400m - 36.24 - (36.2)
800m - 1:08.67 - (32.4)
1200m - 1:41.08 - (32.4)
1600m - 2:13.70 - (32.6)
2000m - 2:46.12 - (32.4)
2400m - 3:18.51 - (32.3)
2800m - 3:50.96 - (32.4)
3200m - 4:23.48 - (32.5)
3600m - 4:55.95 - (32.4)
4000m - 5:28.57 - (32.6)
4400m - 6:01.30 - (32.7)
4800m - 6:34.11 - (32.8)
5200m - 7:07.30 - (33.1)
5600m - 7:40.64 - (33.3)
6000m - 8:13.96 - (33.3)
6400m - 8:47.48 - (33.5)
6800m - 9:21.07 - (33.5)
7200m - 9:54.80 - (33.7)
7600m - 10:28.14 - (33.3)
8000m - 11:01.30 - (33.1)
8400m - 11:34.95 - (33.6)
8800m - 12:09.17 - (34.2)
9200m - 12:44.18 - (35.0)
9600m - 13:20.04 - (35.8)
10000m - 13:55.03 - (34.9)
58.13 0
20 104 Lèo  LANDRY CAN CAN 14:23.24400m - 36.09 - (36.0)
800m - 1:08.25 - (32.1)
1200m - 1:40.46 - (32.2)
1600m - 2:13.51 - (33.0)
2000m - 2:45.91 - (32.4)
2400m - 3:18.57 - (32.6)
2800m - 3:50.73 - (32.1)
3200m - 4:22.97 - (32.2)
3600m - 4:55.56 - (32.5)
4000m - 5:28.32 - (32.7)
4400m - 6:01.12 - (32.8)
4800m - 6:34.08 - (32.9)
5200m - 7:07.18 - (33.1)
5600m - 7:40.54 - (33.3)
6000m - 8:14.10 - (33.5)
6400m - 8:48.22 - (34.1)
6800m - 9:22.43 - (34.2)
7200m - 9:57.18 - (34.7)
7600m - 10:32.68 - (35.5)
8000m - 11:08.93 - (36.2)
8400m - 11:46.02 - (37.0)
8800m - 12:24.26 - (38.2)
9200m - 13:04.13 - (39.8)
9600m - 13:43.21 - (39.0)
10000m - 14:23.24 - (40.0)
86.34 0
21 110 Longjiang  SUN CHN CHN 14:27.51400m - 36.91 - (36.9)
800m - 1:09.56 - (32.6)
1200m - 1:42.18 - (32.6)
1600m - 2:14.43 - (32.2)
2000m - 2:46.50 - (32.0)
2400m - 3:18.60 - (32.0)
2800m - 3:51.14 - (32.5)
3200m - 4:23.85 - (32.7)
3600m - 4:56.49 - (32.6)
4000m - 5:28.96 - (32.4)
4400m - 6:01.55 - (32.5)
4800m - 6:34.28 - (32.7)
5200m - 7:07.47 - (33.1)
5600m - 7:41.61 - (34.1)
6000m - 8:16.39 - (34.7)
6400m - 8:51.70 - (35.3)
6800m - 9:27.51 - (35.8)
7200m - 10:03.62 - (36.1)
7600m - 10:40.21 - (36.5)
8000m - 11:17.74 - (37.5)
8400m - 11:54.94 - (37.2)
8800m - 12:32.22 - (37.2)
9200m - 13:10.20 - (37.9)
9600m - 13:49.04 - (38.8)
10000m - 14:27.51 - (38.4)
90.61 0